Regional Weather Roundup
Issued by NWS

Home | Current Version | Previous Version | Text Only | Print | Product List | Glossary On
Versions: 1 2 3 4 5 6 7 8 9 10 11 12 13 14 15 16 17 18 19 20 21 22 23 24 25 26 27 28 29 30 31 32 33 34 35 36 37 38 39 40 41 42 43 44 45 46 47 48 49 50
000
ASUS45 KBOU 230110
RWRCO

WEATHER ROUNDUP FOR COLORADO
NATIONAL WEATHER SERVICE PUEBLO CO
700 PM MDT SUN APR 22 2018

NOTE: "FAIR" INDICATES FEW OR NO CLOUDS BELOW 12000 FEET WITH NO
SIGNIFICANT WEATHER AND/OR OBSTRUCTIONS TO VISIBILITY.

COZ001>005-013-030-031-230200-
...NORTHWEST COLORADO...

CITY           SKY/WX    TMP DP  RH WIND       PRES   REMARKS
CRAIG          PTCLDY    65  32  29 W6        30.06F
HAYDEN         PTCLDY    62  25  24 CALM      30.09F
MEEKER         PTCLDY    64  30  27 SE6       30.06F
RABBIT EARS PA NOT AVBL
STEAMBOAT SPGS FAIR      62  28  27 W3        30.09F
WALDEN         FAIR      54  23  30 SW6       30.16S
$$

COZ006>008-011-230200-
...WEST CENTRAL VALLEYS...

CITY           SKY/WX    TMP DP  RH WIND       PRES   REMARKS
GRAND JUNCTION PTSUNNY   71  27  19 NW5       29.98F
MONTROSE       PTCLDY    68  20  16 NW6       30.04F
EAGLE          PTCLDY    64  25  22 SW5       30.09F
RIFLE          PTCLDY    67  32  27 SE3       30.02F
DELTA          NOT AVBL
NUCLA          FAIR      68  27  21 NW12G17   30.06S
$$

COZ017>023-064>068-230200-
...SOUTHWEST COLORADO...

CITY           SKY/WX    TMP DP  RH WIND       PRES   REMARKS
DURANGO        PTCLDY    66  13  12 S13       30.06S
CORTEZ         PTSUNNY   68  20  16 W8        30.04F
PAGOSA SPRINGS FAIR      62  10  13 W6        30.12S
TELLURIDE      CLOUDY    51  30  44 E5        30.23S
WOLF CREEK PAS MOCLDY    37  14  38 S8        30.39S
$$

COZ009-010-012-014-032>034-037-058>063-230200-
...CENTRAL COLORADO...

CITY           SKY/WX    TMP DP  RH WIND       PRES   REMARKS
ASPEN          PTCLDY    56  27  32 NW5       30.11F
BUENA VISTA    FAIR      57  21  24 NW3       30.14S
COPPER MTN     NOT AVBL
BERTHOUD PASS  FAIR      30  19  64 S5        30.36F WCI  25
COTTONWOOD PAS MOCLDY    54  19  26 W6        30.24S
GUNNISON       MOCLDY    60  27  28 N9        30.11S
KREMMLING      PTCLDY    63  27  25 CALM      30.12F
LEADVILLE      LGT SNOW  37  30  75 SE9       30.25R
MONARCH PASS   MOCLDY    37  25  60 S15       30.43F
SALIDA         MOCLDY    60  28  29 SE10G22   30.19S
SUNLIGHT       PTCLDY    39  23  52 CALM      30.32F
WILKERSON PASS CLOUDY    36  28  75 E5        30.35R THUNDER
$$

COZ069>075-230200-
...SAN LUIS VALLEY/SANGRE DE CRISTO MOUNTAINS...

CITY           SKY/WX    TMP DP  RH WIND       PRES   REMARKS
ALAMOSA        MOCLDY    61  17  18 SE3       30.11F
DEL NORTE      CLOUDY    58  24  27 W5        30.15F
LA VETA PASS   MOCLDY    39  30  70 NE17G25   30.38S
SAGUACHE       NOT AVBL
$$

COZ035-036-038>040-230200-
...NORTHERN COLORADO FRONT RANGE...

CITY           SKY/WX    TMP DP  RH WIND       PRES   REMARKS
DENVER INTL AP PTCLDY    60  33  36 E8        30.10S
DMNS CITY PARK NOT AVBL
AURORA         PTCLDY    60  31  34 E9        30.11S
FRONT RANGE AP PTCLDY    61  32  33 E7        30.12S
ERIE MUNI ARPT FAIR      63  31  29 E3        30.14S
BOULDER MUN AP FAIR      63  34  34 NE3       30.09S
CENTENNIAL     PTCLDY    60  32  34 NE6       30.11S
BROOMFIELD     PTCLDY    63  32  31 NE3       30.11S
LOVELAND       FAIR      62  37  39 SE7       30.09S
LONGMONT       FAIR      64  35  34 E5        30.11S
$$

COZ041-046-047-076>085-087-088-230200-
...PIKES PEAK/PALMER DIVIDE AND SOUTHERN FOOTHILLS...

CITY           SKY/WX    TMP DP  RH WIND       PRES   REMARKS
COLO. SPRINGS  PTCLDY    55  38  52 SE15      30.15R
A. F. ACADEMY  CLOUDY    57  36  45 SE14      30.14R
SCHRIEVER AFB  NOT AVBL
CHEYENNE MTN   NOT AVBL
ELLICOTT         N/A    N/A N/A N/A S12       30.14R
FALCON         FAIR      52  36  55 S9        30.18R
FORT CARSON    PTCLDY    56  38  52 SE14      30.12R
LIMON          CLEAR     55  38  52 SE15      30.12S
MONUMENT HILL  PTCLDY    50  28  43 CALM      30.18R
CANON CITY     FAIR      61  39  44 E15G24    30.10R
WALSENBURG     FAIR      61  34  36 E10       30.13R
TRINIDAD       MOCLDY    60  31  33 E8        30.12S
$$

COZ042>045-048>051-090-091-230200-
...NORTHEAST COLORADO...

CITY           SKY/WX    TMP DP  RH WIND       PRES   REMARKS
GREELEY ARPT   FAIR      63  36  36 SE8       30.08F
AKRON          CLEAR     52  39  61 SE14      30.12S
BURLINGTON     CLEAR     52  37  56 E9        30.14S
WRAY           FAIR      54  34  47 E9        30.14F
YUMA           NOT AVBL
STERLING       NOT AVBL
HOLYOKE        FAIR      55  37  50 SE9       30.14S
FORT MORGAN    FAIR      58  33  38 SE10      30.11
$$

COZ086-089-092>099-230200-
...SOUTHEAST COLORADO...

CITY           SKY/WX    TMP DP  RH WIND       PRES   REMARKS
PUEBLO         CLEAR     60  38  43 E17       30.10R
LA JUNTA       CLEAR     57  36  45 E14       30.11S
LAMAR          FAIR      55  35  47 SE10      30.12S
SPRINGFIELD      N/A     51  35  54 E13       30.13S
$$




USA.gov is the U.S. government's official web portal to all federal, state and local government web resources and services.